Thursday, May 26, 2016
22:28 UTC
  |  Log In   |  Register Free
Airport Search:

Pilot Country Airport
(X05)

Pilot Country Airport Diagram
No Airport Diagram Available

FAA data valid effective Mar 31 2016 - May 26 2016 (unless otherwise noted).

 
 
 
 
 
 
 
 
 
 
 
 
 
 
Summary: Pilot Country (X05)

Weather Summary


METAR for X05 is not available. Closest METAR is for KZPH 19.0 nm NW
KZPH  (19.0 nm NW)   (most recent observation was updated at 26:22 UTC)
262215Z AUTO 06010KT 10SM SCT075 30/12 A3005 RMK AO2 T02960118

KVDF  (20.6 nm NW)   (most recent observation was updated at 26:22 UTC)
262215Z AUTO 05004KT 10SM SCT060 BKN080 31/15 A3004 RMK AO2

TAF for X05 is not available.
KTPA  (21.4 nm NE)   (most recent observation was updatred at 26:20 UTC)
AMD 262058Z 2621/2718 07009KT P6SM SCT060 FM270300 07006KT P6SM FEW250 FM271500 08007KT P6SM FEW050


KPIE  (27.2 nm NE)   (most recent observation was updatred at 26:17 UTC)
261735Z 2618/2718 09007KT P6SM FEW050 FEW250 FM262100 10010G15KT P6SM SCT060 FM270800 09012KT P6SM SCT250 FM271500 07007KT P6SM FEW050


KMCF  (28.9 nm NE)   (most recent observation was updatred at 26:19 UTC)
AMD 261935Z 2619/2722 12010G15KT 9999 FEW030 SCT090 SCT150 QNH3008INS BECMG 2622/2623 11009KT 9999 FEW035 QNH3003INS BECMG 2715/2716 10010G15KT 9999 FEW040 SCT080 QNH3005INS TX33/2620Z TN22/2711Z AMD 261935
GlobalAir.com is loading additional information.
Current weather conditions are not available for X05.

The nearest NOAA weather station is at BKV (8.9 nm NE from X05)
 Current Weather at BKV
86.0 F° (30.0 C°)
Fair
East winds at 15.0 mph
Pressure:
30.06 in
Humidity:
35%
Wind:
from the East at 15.0 gusting to 18.4 MPH (13 gusting to 16 KT)
Dew Point:
55.0 F° (12.8 C°)
Visibility:
10.00 mi
X05 NOAA Radar

Runway Summary

ID Dimensions Surface Instrument Approaches
18/36 75 ft x 3700 ft Asphalt, Fair Condition N/A

Communications Summary


CTAF122.80
UNICOM122.80
ATISN/A
CLEARANCE DELIVERYN/A

Terminal Procedures Summary


No terminal procedures available for X05





Closest Alternate Airports with Instrument Procedures

KBKV - Hernando County - 10.2 nm NE from X05

KBKV - Hernando County - 10.2 nm NE from X05

KZPH - Zephyrhills Municipal - 21.9 nm SE from X05

KZPH - Zephyrhills Municipal - 21.9 nm SE from X05

KVDF - Vandenberg - 23.7 nm SE from X05

KVDF - Vandenberg - 23.7 nm SE from X05

KTPA - Tampa International - 24.6 nm SW from X05

KTPA - Tampa International - 24.6 nm SW from X05

KTPF - Peter O Knight - 28.8 nm SE from X05

KTPF - Peter O Knight - 28.8 nm SE from X05

Find All Airport Services Find A Hotel Find A Rental Car Find A Golf Course Find A Restaurant $100 Hamburger



FBO's on the Field
FBO Company Facility Photos Services Transportation Aviation Fuel Prices: Prices include tax
Catering Weather Repair Courtesy Rental Type 100LL JetA JetA+ MOGAS 8087
 
Pilot Country Airport, LLC

This FBO has not yet been rated
FS:Independent
Last Updated: May-02
Login to update fuel prices
SS:
Contact Pilot Country Airport, LLCMore FBO Information
 
Add another FBO Facility Photos Catering Weather Repair Courtesy Rental Type 100LL JetA JetA+ MOGAS 8087
Services Transportation Aviation Fuel Prices: Prices include tax


model-print
model-print
model-print
model-print